Weather reports worldwide

Advertisment
Boston/Logan Int., United States of America (72509): temperature & dewpoint: 28.06.2020 18:00:00 - 04.07.2020 18:00:00 (EDT)Boston/Logan Int., United States of America (72509): wind speed: 28.06.2020 18:00:00 - 04.07.2020 18:00:00 (EDT)Boston/Logan Int., United States of America (72509): wind direction: 28.06.2020 18:00:00 - 04.07.2020 18:00:00 (EDT)Boston/Logan Int., United States of America (72509): reduced air pressure: 28.06.2020 18:00:00 - 04.07.2020 18:00:00 (EDT)Boston/Logan Int., United States of America (72509): visibility: 28.06.2020 18:00:00 - 04.07.2020 18:00:00 (EDT)Boston/Logan Int., United States of America (72509): precipitation: 28.06.2020 18:00:00 - 04.07.2020 18:00:00 (EDT)
Date & Time tt [°C] td [°C] ff [km/h] ff [kn] dd ppp [hPa] vv [km] rr [mm]
04.07.2020 18:00:00 - - - - - - - -
04.07.2020 17:00:00 20,0 16,7 16 9 E 1012,8 16 0,0
04.07.2020 16:00:00 19,4 16,7 21 11 E 1013,1 16 -
04.07.2020 15:00:00 19,4 16,1 18 10 E 1013,4 16 -
04.07.2020 14:00:00 19,4 16,1 16 9 E 1013,5 16 0,0
04.07.2020 13:00:00 19,4 16,1 16 9 E 1013,7 16 -
04.07.2020 12:00:00 20,0 16,1 16 9 SE 1014,0 16 -
04.07.2020 11:00:00 21,1 16,7 0 0 N 1014,0 16 0,0
04.07.2020 10:00:00 18,9 15,6 8 4 NNW 1013,7 16 -
04.07.2020 09:00:00 18,3 15,6 8 4 NNE 1013,7 16 -
04.07.2020 08:00:00 17,2 15,0 13 7 NNE 1013,9 16 0,0
04.07.2020 07:00:00 16,7 15,6 11 6 N 1013,7 16 -
04.07.2020 06:00:00 16,7 15,0 11 6 N 1013,3 10 -
04.07.2020 05:00:00 16,1 15,6 9 5 N 1012,8 10 0,0
04.07.2020 04:00:00 16,7 15,0 16 9 N 1012,6 16 -
04.07.2020 03:00:00 16,7 15,6 11 6 N 1012,7 16 -
04.07.2020 02:00:00 16,7 15,6 16 9 N 1012,9 16 0,0
04.07.2020 01:00:00 16,7 15,6 16 9 N 1013,0 8 0,0
04.07.2020 00:00:00 16,7 15,6 21 11 NNE 1013,2 16 -
03.07.2020 23:00:00 16,7 15,6 18 10 NNE 1013,7 13 -
03.07.2020 22:00:00 17,2 15,6 22 12 NNE 1013,5 11 0,0
03.07.2020 21:00:00 17,2 15,6 16 9 NNE 1013,4 8 0,0
03.07.2020 20:00:00 17,2 15,6 18 10 N 1012,8 8 0,0
03.07.2020 19:00:00 17,2 15,6 21 11 NNE 1012,7 8 -
03.07.2020 18:00:00 17,8 15,6 21 11 NNE 1012,8 11 -
03.07.2020 17:00:00 18,9 15,6 24 13 NNE 1012,6 11 0,0
03.07.2020 16:00:00 19,4 15,6 22 12 NNE 1012,6 11 -
03.07.2020 15:00:00 18,9 15,6 26 14 NNE 1012,9 11 -
03.07.2020 14:00:00 18,9 16,1 22 12 NE 1012,8 16 0,0
03.07.2020 13:00:00 20,0 16,1 22 12 NE 1012,9 16 -
03.07.2020 12:00:00 21,1 16,1 28 15 NNE 1012,7 16 -
03.07.2020 11:00:00 20,0 16,7 24 13 NE 1012,3 16 0,0
03.07.2020 10:00:00 19,4 17,2 18 10 ENE 1011,9 16 -
03.07.2020 09:00:00 19,4 17,2 15 8 NE 1011,6 16 -
03.07.2020 08:00:00 20,6 17,8 24 13 NNE 1010,5 13 0,0
03.07.2020 07:00:00 21,7 18,3 28 15 NNE 1009,6 16 -
03.07.2020 06:00:00 23,9 18,9 15 8 NNE 1008,5 16 -
03.07.2020 05:00:00 24,4 18,9 15 8 NNW 1007,9 16 0,0
03.07.2020 04:00:00 24,4 18,9 15 8 NW 1007,3 16 -
03.07.2020 03:00:00 25,0 18,9 9 5 NNW 1007,1 16 -
03.07.2020 02:00:00 25,0 18,3 13 7 NW 1007,1 16 0,0
03.07.2020 01:00:00 25,0 18,9 15 8 WNW 1007,1 16 -
03.07.2020 00:00:00 25,0 18,9 11 6 W 1007,1 16 -
02.07.2020 23:00:00 26,1 17,2 15 8 W 1006,8 16 0,0
02.07.2020 22:00:00 26,1 16,7 13 7 SW 1006,7 16 -
02.07.2020 21:00:00 26,7 20,6 22 12 W 1007,2 16 -
02.07.2020 20:00:00 28,9 18,9 18 10 SW 1006,3 16 0,0
02.07.2020 19:00:00 26,7 19,4 5 3 SE 1005,9 16 -
02.07.2020 18:00:00 25,6 19,4 9 5 SE 1005,7 16 -
02.07.2020 17:00:00 27,2 19,4 13 7 ESE 1006,3 16 0,0
02.07.2020 16:00:00 27,8 19,4 18 10 ESE 1006,5 16 -
02.07.2020 15:00:00 27,2 18,9 18 10 ESE 1007,1 16 -
02.07.2020 14:00:00 26,7 19,4 15 8 SE 1007,5 16 0,0
02.07.2020 13:00:00 26,1 18,9 13 7 SE 1007,9 16 -
02.07.2020 12:00:00 25,6 18,9 13 7 SE 1008,3 16 -
02.07.2020 11:00:00 23,9 18,9 13 7 SE 1008,5 16 0,0
02.07.2020 10:00:00 22,2 18,3 11 6 SE 1009,1 16 -
02.07.2020 09:00:00 21,7 17,8 11 6 S 1009,3 16 -
02.07.2020 08:00:00 20,0 17,8 8 4 S 1009,7 16 0,0
02.07.2020 07:00:00 19,4 18,3 0 0 N 1009,8 16 -
02.07.2020 06:00:00 18,3 17,8 11 6 WNW 1009,7 3,2 -
02.07.2020 05:00:00 17,8 17,8 9 5 SW 1009,3 0,8 0,0
02.07.2020 04:00:00 18,3 17,8 5 3 SW 1009,3 11 -
02.07.2020 03:00:00 17,8 17,8 9 5 SSW 1009,6 0,8 -
02.07.2020 02:00:00 17,8 17,2 5 3 SSE 1009,5 0,4 0,0
02.07.2020 01:00:00 18,9 17,2 5 3 N 1009,9 16 -
02.07.2020 00:00:00 18,9 17,8 5 3 SW 1010,4 16 -
01.07.2020 23:00:00 19,4 17,8 9 5 SSW 1010,8 16 0,0
01.07.2020 22:00:00 18,9 17,8 9 5 S 1010,8 16 -
01.07.2020 21:00:00 19,4 17,8 8 4 SSE 1010,7 16 -
01.07.2020 20:00:00 19,4 17,8 9 5 E 1010,4 16 0,0
01.07.2020 19:00:00 20,0 17,8 0 0 N 1010,5 16 -
01.07.2020 18:00:00 20,0 17,8 9 5 ESE 1010,2 16 -
01.07.2020 17:00:00 20,0 17,8 13 7 E 1010,4 16 0,0
01.07.2020 16:00:00 20,0 17,8 18 10 E 1010,5 16 -
01.07.2020 15:00:00 22,2 18,3 18 10 E 1010,6 16 -
01.07.2020 14:00:00 21,7 18,3 18 10 E 1011,0 16 -
01.07.2020 13:00:00 20,6 18,9 15 8 E 1011,4 16 0,0
01.07.2020 12:00:00 20,6 18,9 13 7 ENE 1011,6 16 0,0
01.07.2020 11:00:00 18,9 18,3 13 7 ENE 1011,8 4,8 0,8
01.07.2020 10:00:00 18,3 17,8 11 6 E 1012,0 6 0,0
01.07.2020 09:00:00 18,9 17,8 8 4 ESE 1011,9 16 0,0
01.07.2020 08:00:00 19,4 18,9 5 3 WSW 1011,7 4,8 0,8
01.07.2020 07:00:00 18,3 17,2 8 4 S 1011,7 6 0,0
01.07.2020 06:00:00 17,8 17,2 5 3 SSE 1011,6 6 0,3
01.07.2020 05:00:00 17,8 17,2 5 3 SSW 1011,3 4,8 0,0
01.07.2020 04:00:00 17,8 17,2 0 0 N 1011,3 15 -
01.07.2020 03:00:00 17,8 16,7 8 4 S 1011,4 16 -
01.07.2020 02:00:00 17,8 16,7 0 0 N 1011,8 16 0,0
01.07.2020 01:00:00 17,2 16,1 0 0 N 1012,0 16 -
01.07.2020 00:00:00 17,2 16,7 8 4 S 1012,5 16 -
30.06.2020 23:00:00 17,8 16,7 5 3 SSE 1012,7 16 0,0
30.06.2020 22:00:00 17,2 16,7 11 6 SE 1012,7 16 -
30.06.2020 21:00:00 17,8 16,7 8 4 ENE 1012,6 11 -
30.06.2020 20:00:00 17,8 16,7 9 5 E 1012,5 13 -
30.06.2020 19:00:00 18,3 16,7 9 5 ENE 1012,8 16 -
30.06.2020 18:00:00 18,3 16,7 15 8 E 1012,6 16 -
30.06.2020 17:00:00 18,3 16,7 18 10 E 1012,7 16 -
30.06.2020 16:00:00 18,9 17,2 15 8 E 1012,5 16 0,0
30.06.2020 15:00:00 18,3 17,8 8 4 E 1012,7 3,2 0,3
30.06.2020 14:00:00 18,3 17,8 8 4 E 1013,0 10 2,5
30.06.2020 13:00:00 17,8 17,2 15 8 NE 1013,2 2,4 1,0
30.06.2020 12:00:00 17,8 16,1 16 9 E 1013,7 16 -
30.06.2020 11:00:00 19,4 17,2 16 9 NE 1013,0 16 0,0
30.06.2020 10:00:00 18,9 17,2 15 8 NNE 1013,1 16 -
30.06.2020 09:00:00 17,8 16,7 13 7 N 1012,6 11 -
30.06.2020 08:00:00 17,8 16,7 9 5 NNE 1012,7 16 -
30.06.2020 07:00:00 17,8 16,7 9 5 N 1012,5 16 -
30.06.2020 06:00:00 17,2 16,7 13 7 N 1012,0 16 -
30.06.2020 05:00:00 17,2 16,1 15 8 N 1011,8 13 0,3
30.06.2020 04:00:00 17,2 16,1 9 5 N 1012,0 4,0 0,5
30.06.2020 03:00:00 17,2 16,1 9 5 N 1011,6 11 -
30.06.2020 02:00:00 17,8 16,7 13 7 N 1011,5 16 0,0
30.06.2020 01:00:00 17,8 16,7 5 3 NNW 1011,6 16 0,0
30.06.2020 00:00:00 17,2 16,7 9 5 NE 1011,5 16 -
29.06.2020 23:00:00 17,2 16,7 13 7 NNE 1011,8 16 0,5
29.06.2020 22:00:00 17,8 16,7 0 0 N 1011,7 11 0,8
29.06.2020 21:00:00 17,8 17,2 13 7 NNE 1011,0 10 1,3
29.06.2020 20:00:00 18,3 16,7 9 5 E 1012,5 11 0,0
29.06.2020 19:00:00 19,4 16,7 13 7 NE 1010,8 16 -
29.06.2020 18:00:00 19,4 17,2 15 8 NNE 1010,1 16 -
29.06.2020 17:00:00 20,0 16,7 13 7 N 1010,2 16 -
29.06.2020 16:00:00 19,4 17,2 18 10 NNE 1010,4 16 -
29.06.2020 15:00:00 17,8 16,7 18 10 NNE 1010,2 16 0,3
29.06.2020 14:00:00 18,3 17,2 16 9 ENE 1009,3 11 0,0
29.06.2020 13:00:00 20,0 18,9 13 7 N 1009,5 11 1,5
29.06.2020 12:00:00 19,4 18,3 13 7 NE 1009,5 11 0,3
29.06.2020 11:00:00 20,0 17,8 18 10 E 1009,5 16 0,0
29.06.2020 10:00:00 22,2 18,9 11 6 N 1009,0 16 -
29.06.2020 09:00:00 21,1 19,4 9 5 N 1008,8 11 -
29.06.2020 08:00:00 20,0 18,9 11 6 NE 1009,1 8 -
29.06.2020 07:00:00 20,0 18,3 5 3 NW 1008,5 16 -
29.06.2020 06:00:00 18,9 18,3 8 4 NNE 1008,1 10 -
29.06.2020 05:00:00 18,9 17,8 8 4 N 1007,4 15 -
29.06.2020 04:00:00 18,3 17,2 9 5 NE 1007,2 16 -
29.06.2020 03:00:00 18,3 17,8 5 3 S 1007,0 16 0,0
29.06.2020 02:00:00 18,3 17,2 9 5 SSE 1007,6 16 0,3
29.06.2020 01:00:00 18,9 18,3 0 0 N 1007,9 16 0,0
29.06.2020 00:00:00 18,3 17,8 0 0 N 1007,7 15 0,3
28.06.2020 23:00:00 17,8 16,7 15 8 ESE 1007,9 16 1,3
28.06.2020 22:00:00 19,4 17,8 0 0 N 1007,0 16 1,0
28.06.2020 21:00:00 19,4 17,2 21 11 WNW 1007,7 10 1,8
28.06.2020 20:00:00 19,4 17,2 16 9 SSW 1006,5 16 0,0
28.06.2020 19:00:00 20,0 18,3 11 6 SW 1006,7 16 0,0
28.06.2020 18:00:00 20,0 18,3 9 5 S 1006,6 16 0,8

tt = temperature
td = dewpoint
ff = wind speed
dd = wind direction
ppp = reduced air pressure
vv = visibility
rr = precipitation

Next stations